Hourly Data Report for April 13, 2004

SHERBROOKE A
QUEBEC

45°26'00.000" N
71°41'00.000" W
241.40 m
7028124
71610
YSC

Download Data

Hourly Data (April 2004)
Hourly Data Report for April 13, 2004
TIME
LST
Temp Definition
°C
Dew Point Definition
°C
Rel Hum Definition
%
Precip. Amount Definition
mm

Wind Dir Definition
10's deg

Wind Spd Definition
km/h
Visibility Definition
km
Stn Press Definition
kPa
Hmdx Definition


Wind Chill Definition


Weather Definition


00:00 1.8 -7.2 51   5 11 15.0 99.55      
01:00 1.7 -7.0 52   5 13 15.0 99.44      
02:00 3.5 -0.8 73   14 24 15.0 99.48     Rain
03:00 1.5 -0.1 89   11 11 12.9 99.52     Moderate Rain
04:00 0.6 -0.4 93   9 9 3.4 99.49      
05:00 0.5 -0.4 94   6 9 8.0 99.43      
06:00 0.9 -0.1 93   6 7 12.9 99.41      
07:00 1.1 0.1 93   7 9 16.1 99.38     Snow
08:00 1.7 0.7 93   7 11 16.1 99.22     Rain,Ice Pellets
09:00 2.5 1.0 90   7 11 12.9 99.17     Rain
10:00 3.0 2.0 93   9 11 3.2 99.15     Rain, Fog
11:00 3.7 2.3 91   9 9 19.3 99.09     Cloudy
12:00 4.6 1.6 81   13 19 24.1 98.98     Cloudy
13:00 4.9 1.3 77   9 17 24.1 98.81     Cloudy
14:00 5.8 1.9 76   11 6 24.1 98.71     Cloudy
15:00 5.8 1.9 76   15 9 24.1 98.57     Cloudy
16:00 6.0 2.4 78   11 7 24.1 98.41     Cloudy
17:00 6.1 2.4 77   13 15 15.0 98.23     Rain
18:00 5.1 3.8 91   8 7 11.3 98.09     Rain
19:00 4.9 3.8 93   7 4 15.0 98.00      
20:00 4.8 3.2 89   9 13 15.0 97.84     Rain
21:00 3.8 3.0 95   3 7 15.0 97.75      
22:00 4.4 3.4 93   6 7 15.0 97.54      
23:00 4.9 4.2 95     0 6.4 97.47     Rain

Notes on Data Quality.

Legend

  • E = Estimated
  • M = Missing
  • NA = Not Available*
  • [empty] = Indicates an unobserved value
Date modified: